Flag for Canada Weather past 2 weeks in Windsor, Ontario, Canada

Now
66 °F

Scattered clouds.


Feels Like: 66 °F
Forecast: 42 / 73 °F
Wind: 10 mph from Southwest

Location: Windsor Weather Station

Current Time: May 23, 2015 at 1:13:23 PM

Latest Report: May 23, 2015 at 12:00 PM


Visibility: 15 mi

Pressure: 30.40 "Hg

Humidity: 35%

Dew point: 37 °F

Location of WindsorLocation

Historic Weather in Windsor — Graph

°F

Windsor temperature yesterday

Maximum temperature yesterday: 64 °F (at 5:00 PM)
Minimum temperature yesterday: 46 °F (at 11:00 PM)
Average temperature yesterday: 56 °F

Past Weeks' High & Low Weather Summary

 TemperatureHumidityPressure
High84 °F (May 8, 3:00 PM)100% (May 9, 7:00 AM)30.50 "Hg (May 9, 7:00 AM)
Low37 °F (May 14, 5:00 AM)26% (May 22, 5:00 PM)29.78 "Hg (May 11, 7:00 PM)
Average60 °F72%30.10 "Hg
* Reported May 8 12:00 Noon — May 23 12:00 Noon, Windsor, Weather by CustomWeather, © 2015

Note: Actual official high and low records may vary slightly from our data, if they occured in-between our weather recording intervals... More about our weather records

Advertising

Windsor weather history for previous 24 hours

 ConditionsComfort  
Time TempWeatherWind HumidityBarometerVisibility
12:00 PM
Sat, May 23
66 °FScattered clouds.10 mph35%30.40 "Hg15 mi
11:00 AM64 °FScattered clouds.9 mph40%30.40 "Hg15 mi
10:00 AM61 °FScattered clouds.9 mph52%30.42 "Hg15 mi
9:00 AM54 °FPassing clouds.5 mph67%30.42 "Hg15 mi
8:00 AM48 °FPassing clouds.6 mph66%30.42 "Hg15 mi
7:00 AM43 °FPassing clouds.3 mph66%30.40 "Hg15 mi
6:00 AM41 °FPassing clouds.5 mph66%30.38 "Hg15 mi
5:00 AM41 °FPassing clouds.6 mph70%30.36 "Hg15 mi
4:00 AM43 °FPassing clouds.2 mph66%30.34 "Hg15 mi
3:00 AM43 °FPassing clouds.3 mph71%30.34 "Hg15 mi
2:00 AM45 °FPassing clouds.3 mph66%30.34 "Hg15 mi
1:00 AM45 °FPassing clouds.7 mph61%30.34 "Hg15 mi
12:00 AM45 °FPassing clouds.8 mph57%30.35 "Hg15 mi
11:00 PM
Fri, May 22
46 °FPassing clouds.10 mph53%30.33 "Hg15 mi
10:00 PM48 °FPassing clouds.13 mph50%30.31 "Hg15 mi
9:00 PM52 °FScattered clouds.17 mph54%30.27 "Hg15 mi
8:00 PM59 °FPassing clouds.17 mph42%30.25 "Hg15 mi
7:00 PM64 °FPassing clouds.14 mph28%30.23 "Hg15 mi
6:00 PM64 °FPassing clouds.8 mph28%30.23 "Hg15 mi
5:00 PM64 °FPassing clouds.9 mph26%30.22 "Hg15 mi
4:00 PM63 °FPassing clouds.7 mph37%30.22 "Hg15 mi
3:00 PM63 °FPassing clouds.9 mph30%30.21 "Hg15 mi
2:00 PM63 °FPassing clouds.16 mph32%30.19 "Hg15 mi
1:00 PM61 °FPassing clouds.14 mph31%30.18 "Hg15 mi
Weather by CustomWeather, © 2015

See weather overviewHow to use our weather pages